UA1ZPU-15 Weather Reports


time (UTC)temp
C
wind
direction
speed
KPH
gust
KPH
rain 1hr
cm
rain 24hr
cm
rain mn
cm
humidity
%
barometer
mb
20260508141045 5 0.0 0.0 0.00 0.00 0.00 23 988.4
20260508135038 4 0.0 0.0 0.00 0.00 0.00 23 988.3
20260508134035 5 0.0 0.0 0.00 0.00 0.00 23 988.1
20260508133032 4 0.0 0.0 0.00 0.00 0.00 23 988.1
20260508132028 3 0.0 0.0 0.00 0.00 0.00 24 988.1
20260508131026 5 0.0 0.0 0.00 0.00 0.00 17 988.2
20260508130022 6 0.0 0.0 0.00 0.00 0.00 17 988.2
20260508125020 6 0.0 0.0 0.00 0.00 0.00 20 988.1
20260508124133 3 0.0 0.0 0.00 0.00 0.00 30 988.2
20260508124018 3 0.0 0.0 0.00 0.00 0.00 33 988.2
20260508123130 3 0.0 0.0 0.00 0.00 0.00 30 988.3
20260508122127 4 0.0 0.0 0.00 0.00 0.00 25 988.1
20260508121124 7 0.0 0.0 0.00 0.00 0.00 21 988.0
20260508120236 5 0.0 0.0 0.00 0.00 0.00 32 988.0
20260508120122 5 0.0 0.0 0.00 0.00 0.00 30 988.0
20260508115343 3 0.0 0.0 0.00 0.00 0.00 45 988.1
20260508114341 3 0.0 0.0 0.00 0.00 0.00 45 988.1
20260508113339 2 0.0 0.0 0.00 0.00 0.00 47 988.1
20260508112336 5 0.0 0.0 0.00 0.00 0.00 13 988.0
20260508111332 7 0.0 0.0 0.00 0.00 0.00 10 987.6
20260508110330 6 0.0 0.0 0.00 0.00 0.00 12 987.6
20260508105327 5 0.0 0.0 0.00 0.00 0.00 12 987.7
20260508104324 3 0.0 0.0 0.00 0.00 0.00 21 987.6
20260508103321 5 0.0 0.0 0.00 0.00 0.00 12 987.5
20260508102319 6 0.0 0.0 0.00 0.00 0.00 13 987.3
20260508101316 7 0.0 0.0 0.00 0.00 0.00 15 987.2
20260508100313 5 0.0 0.0 0.00 0.00 0.00 23 987.2
20260508095310 2 0.0 0.0 0.00 0.00 0.00 33 987.2
20260508094424 3 0.0 0.0 0.00 0.00 0.00 30 987.2
20260508094309 3 0.0 0.0 0.00 0.00 0.00 29 987.2
20260508065548 6 0.0 0.0 0.00 0.00 0.00 10 985.7
20260508064545 6 0.0 0.0 0.00 0.00 0.00 16 985.7
20260508063541 5 0.0 0.0 0.00 0.00 0.00 19 985.6
20260508062537 5 0.0 0.0 0.00 0.00 0.00 21 985.5
20260508061535 5 0.0 0.0 0.00 0.00 0.00 20 985.4
20260508060532 5 0.0 0.0 0.00 0.00 0.00 27 985.3
20260508055528 5 0.0 0.0 0.00 0.00 0.00 33 985.3
20260508054526 5 0.0 0.0 0.00 0.00 0.00 37 985.2
20260508053522 4 0.0 0.0 0.00 0.00 0.00 42 985.1
20260508052519 3 0.0 0.0 0.00 0.00 0.00 52 985.0
20260508051519 4 0.0 0.0 0.00 0.00 0.00 51 984.8
20260508050513 3 0.0 0.0 0.00 0.00 0.00 59 984.8
20260508045626 1 0.0 0.0 0.00 0.00 0.00 69 984.7
20260508045511 1 0.0 0.0 0.00 0.00 0.00 70 984.7
20260507210328 -2 0.0 0.0 0.00 0.00 0.00 99 981.9
20260507205326 -2 0.0 0.0 0.00 0.00 0.00 99 981.8
20260507204323 -2 0.0 0.0 0.00 0.00 0.00 99 981.8
20260507203321 -2 0.0 0.0 0.00 0.00 0.00 99 981.7
20260507202319 -2 0.0 0.0 0.00 0.00 0.00 99 981.6
20260507201316 -1 0.0 0.0 0.00 0.00 0.00 99 981.5
20260507200313 -1 0.0 0.0 0.00 0.00 0.00 96 981.5
20260507195308 -1 0.0 0.0 0.00 0.00 0.00 96 981.5
20260507194304 0 0.0 0.0 0.00 0.00 0.00 94 981.3
20260507193301 -1 0.0 0.0 0.00 0.00 0.00 96 981.4
20260507192259 0 0.0 0.0 0.00 0.00 0.00 93 981.2
20260507191256 0 0.0 0.0 0.00 0.00 0.00 90 981.1
20260507190253 0 0.0 0.0 0.00 0.00 0.00 80 981.0
20260507184247 0 0.0 0.0 0.00 0.00 0.00 71 981.0
20260507183244 1 0.0 0.0 0.00 0.00 0.00 65 981.0
20260507182241 1 0.0 0.0 0.00 0.00 0.00 65 980.9
20260507181238 1 0.0 0.0 0.00 0.00 0.00 63 980.9
20260507180235 1 0.0 0.0 0.00 0.00 0.00 61 980.8
20260507175232 2 0.0 0.0 0.00 0.00 0.00 57 980.8
20260507174229 2 0.0 0.0 0.00 0.00 0.00 50 980.6
20260507173226 3 0.0 0.0 0.00 0.00 0.00 49 980.7
20260507172222 3 0.0 0.0 0.00 0.00 0.00 48 980.6
20260507171218 3 0.0 0.0 0.00 0.00 0.00 50 980.6
20260507170212 3 0.0 0.0 0.00 0.00 0.00 50 980.6
20260507165209 3 0.0 0.0 0.00 0.00 0.00 52 980.6
20260507163203 2 0.0 0.0 0.00 0.00 0.00 53 980.6
20260507162200 2 0.0 0.0 0.00 0.00 0.00 52 980.5
20260507161157 2 0.0 0.0 0.00 0.00 0.00 50 980.5
20260507160155 3 0.0 0.0 0.00 0.00 0.00 47 980.5
20260507154150 5 0.0 0.0 0.00 0.00 0.00 23 980.2
20260507153304 5 0.0 0.0 0.00 0.00 0.00 22 980.2